Regional Weather Roundup
Issued by NWS

Home | Current Version | Previous Version | Text Only | Print | Product List | Glossary Off
Versions: 1 2 3 4 5 6 7 8 9 10 11 12 13 14 15 16 17 18 19 20 21 22 23 24 25 26 27 28 29 30 31 32 33 34 35 36 37 38 39 40 41 42 43 44 45 46 47 48 49 50

000
ASUS43 KBIS 041001
RWRND

NORTH DAKOTA REGIONAL WEATHER ROUNDUP
NATIONAL WEATHER SERVICE BISMARCK ND
400 AM CST WED MAR 04 2015

NOTE: "FAIR" INDICATES FEW OR NO CLOUDS BELOW 12,000 FEET WITH NO
SIGNIFICANT WEATHER AND/OR OBSTRUCTIONS TO VISIBILITY.


NDZ001>003-009>011-017-041100-
NORTHWEST NORTH DAKOTA

CITY           SKY/WX    TMP DP  RH WIND       PRES   REMARKS
WILLISTON      CLEAR     -8 -15  71 NW12      30.18R WCI -27
MINOT          FAIR      -8 -16  67 W15       30.10R WCI -30
MINOT AFB      CLEAR     -9 -16  70 NW20      30.10R WCI -33
$$

NDZ018>021-031>035-040>046-041100-
SOUTHWEST NORTH DAKOTA

CITY           SKY/WX    TMP DP  RH WIND       PRES   REMARKS
BISMARCK       PTCLDY     1  -6  72 NW18      30.12R WCI -20
DICKINSON      CLEAR     -3 -12  65 NW18G25   30.06R WCI -25
GARRISON         N/A     -7 -13  75 NW15      30.10R WCI -28
HETTINGER ARPT CLEAR     -5 -10  79 W3        30.08R
$$

NDZ004>008-012>016-024-026-027-054-041100-
NORTHEAST NORTH DAKOTA

CITY           SKY/WX    TMP DP  RH WIND       PRES   REMARKS
GRAND FORKS    CLEAR     -6 -14  68 NW10      30.09R WCI -24
GRND FRKS AFB  CLEAR     -5 -14  66 NW10      30.08R WCI -23
DEVILS LAKE    CLEAR     -8 -17  65 NW15      30.04R WCI -29
$$

NDZ022-023-025-028>030-036>039-047>053-041100-
SOUTHEAST NORTH DAKOTA

CITY           SKY/WX    TMP DP  RH WIND       PRES   REMARKS
FARGO          CLEAR     -3 -11  68 W9        30.10R WCI -19
JAMESTOWN      MOCLDY    -3  -8  79 NW12      30.06R WCI -21
$$



USA.gov is the U.S. government's official web portal to all federal, state and local government web resources and services.